Vorticity
5 4 4 4 5 5 5 4 4 4 5 5 7 7 5 4 4 7 7 6 2 3 6 6 6 7 5 3 4 5 5 6 5 5 5 5 6 6 7 5 7 7 8 5 8 4 5
5 5 3 3 4 6 5 4 4 5 6 7 6 7 7 5 3 4 6 6 7 4 3 6 6 5 5 6 5 4 5 6 6 6 6 6 5 6 8 9 10 6 5 6 7 4 5
8 7 6 3 3 4 5 6 4 4 5 5 6 7 9 8 7 9 5 5 6 6 5 3 5 5 8 3 5 2 2 -2 -1 3 5 5 4 3 5 8 4 4 8 9 4 6 3
3 6 7 7 3 2 4 5 5 4 2 5 5 6 5 6 6 5 7 4 5 6 6 6 5 4 4 6 9 6 0 0 2 3 4 6 3 3 7 7 4 7 10 5 5 2 3
3 2 2 4 7 6 3 3 4 5 5 1 3 4 5 4 4 6 7 5 6 6 5 5 4 5 4 4 5 6 8 9 8 6 5 7 4 4 7 7 5 6 7 5 4 3 2
5 3 4 3 3 5 6 5 4 2 5 6 3 1 3 4 4 3 3 7 7 5 7 3 2 2 2 3 5 5 4 6 8 7 7 7 4 5 7 7 6 6 4 3 3 5 3
4 6 5 3 4 4 4 5 5 6 3 3 6 6 2 1 1 1 2 1 10 8 6 3 5 4 4 2 3 5 6 5 4 4 7 6 4 5 8 7 6 3 -3 9 10 6 4
20 -1 5 5 5 2 5 6 5 5 6 6 3 3 6 6 3 3 2 3 5 4 7 8 9 5 5 3 4 6 6 6 5 5 7 6 4 4 10 8 5 4 2 12 8 6 6
-0 8 38 1 6 7 6 4 5 4 4 5 6 5 4 3 7 7 5 4 4 4 5 5 7 8 8 7 7 6 6 6 7 6 6 5 4 9 10 6 4 1 8 9 6 5 5
10 12 -10 -0 23 -3 3 5 6 5 5 6 5 6 6 6 2 4 5 6 7 6 7 8 5 6 8 6 6 9 6 5 6 5 6 5 6 9 7 4 2 6 8 7 6 6 9
7 2 7 11 3 8 40 -2 7 7 5 5 6 5 7 5 6 6 4 3 5 6 6 9 6 5 7 8 7 8 8 8 6 6 7 5 6 7 6 7 6 6 7 7 9 10 8
19 15 9 7 8 6 5 33 -2 3 7 5 6 5 5 6 5 6 7 6 3 7 8 3 4 7 9 9 9 10 9 7 5 5 6 5 6 7 4 5 8 9 6 9 8 8 7
10 4 14 21 4 2 8 7 24 5 -2 5 4 7 5 6 5 5 6 6 5 4 6 7 5 6 3 2 1 6 7 9 6 8 4 8 6 6 3 5 8 7 7 9 7 7 4
6 9 7 3 1 18 13 6 7 2 6 23 0 5 8 6 5 6 6 7 6 4 4 4 1 6 6 4 7 9 9 8 9 8 8 7 8 7 4 7 7 7 8 6 4 7 6
7 19 5 10 9 3 3 17 14 14 6 10 26 18 -4 12 5 6 6 5 6 5 5 7 4 7 2 5 8 6 5 5 5 6 5 8 6 8 8 8 7 8 7 5 7 6 6
2 6 8 13 8 8 12 -1 10 18 20 -2 3 -3 36 -2 11 6 5 -2 4 7 6 8 5 1 2 1 5 8 4 5 8 8 8 7 8 7 6 7 8 8 6 8 7 5 5
7 1 5 8 8 10 4 7 3 4 22 22 4 6 9 30 1 5 -0 5 2 4 9 3 -4 2 9 6 10 8 5 6 8 5 8 9 7 5 7 9 6 7 7 7 5 5 5
45 37 34 16 2 9 3 6 9 6 2 26 17 7 19 -3 12 11 15 -0 7 -1 3 -7 9 3 16 4 7 4 5 4 10 4 7 5 5 5 4 7 6 6 7 7 5 7 3
50 49 48 57 26 22 12 1 6 -0 2 7 21 2 7 13 2 -1 0 4 5 3 -0 -5 8 1 20 3 4 -8 -2 3 6 13 5 6 6 8 7 8 6 5 7 7 6 5 6
21 35 55 51 46 41 21 10 18 3 -7 10 10 15 9 22 16 -9 6 -0 7 6 10 5 5 2 16 11 4 6 8 2 -5 6 8 5 5 9 8 7 8 7 6 7 6 6 10
3 1 2 6 71 21 11 31 24 8 4 12 7 9 6 23 15 23 8 17 9 -5 4 0 5 3 -3 22 3 8 1 -2 25 5 7 6 -3 -0 0 -0 -8 2 7 6 6 8 8
6 10 15 14 8 23 91 8 7 28 24 14 11 6 16 8 -5 12 28 5 2 6 15 6 2 14 12 8 21 23 20 8 5 5 -0 -0 13 10 6 4 3 5 6 7 5 7 6
3 2 2 11 18 12 13 65 40 5 8 7 9 18 14 9 8 14 13 12 13 13 23 16 16 19 13 31 13 6 2 2 6 6 12 1 17 7 0 6 12 9 2 1 3 13 8
19 16 6 6 7 16 17 10 37 54 9 26 8 15 4 4 18 22 -6 15 7 17 13 17 21 13 10 19 10 15 12 7 9 0 -7 22 10 1 2 9 3 6 5 10 14 6 6
17 18 17 13 8 10 13 18 10 20 32 27 25 6 2 12 8 10 25 11 10 3 6 7 6 22 22 17 5 1 2 3 1 2 18 5 -7 12 4 8 10 9 15 11 1 10 13
26 26 23 20 20 16 14 16 13 10 15 19 46 13 -7 23 5 11 10 9 16 7 6 3 5 10 10 3 11 5 2 3 7 10 6 -5 13 10 10 6 3 10 6 12 8 2 11
16 19 20 19 19 22 23 22 21 3 8 10 28 39 -27 24 7 9 10 2 24 3 9 7 7 7 5 14 10 5 8 8 5 -1 -3 17 11 10 8 4 8 6 12 -2 6 3 6
11 26 19 18 18 17 14 17 23 28 35 12 9 29 -12 5 5 7 13 8 15 20 4 6 9 6 5 5 10 3 4 5 7 1 5 15 7 0 -1 3 8 3 2 9 2 9 11
10 26 11 16 13 8 9 19 37 42 44 20 18 16 32 2 -1 -1 12 13 -3 23 12 7 8 8 7 11 10 11 12 7 10 10 10 6 5 9 5 10 12 9 8 0 7 7 10
Height
5861 5860 5860 5859 5858 5857 5857 5856 5855 5855 5853 5853 5852 5852 5852 5852 5850 5850 5850 5850 5850 5850 5849 5849 5849 5848 5848 5848 5847 5846 5846 5846 5846 5846 5846 5845 5845 5845 5844 5843 5842 5841 5841 5841 5840 5839 5838
5859 5859 5858 5856 5857 5856 5855 5855 5854 5854 5853 5851 5850 5850 5850 5850 5849 5849 5848 5848 5848 5848 5848 5848 5848 5847 5847 5848 5846 5846 5845 5844 5844 5844 5844 5844 5844 5843 5842 5841 5841 5840 5839 5839 5838 5837 5835
5856 5856 5857 5855 5854 5854 5854 5853 5853 5852 5852 5850 5849 5848 5848 5848 5848 5847 5847 5847 5847 5847 5846 5846 5846 5845 5846 5847 5846 5845 5845 5844 5844 5843 5843 5842 5841 5840 5839 5838 5838 5837 5836 5836 5835 5833 5832
5849 5851 5851 5852 5852 5851 5851 5850 5850 5850 5849 5849 5848 5846 5845 5845 5845 5845 5844 5844 5844 5844 5844 5844 5844 5843 5843 5843 5843 5843 5843 5843 5842 5842 5841 5840 5839 5838 5837 5836 5835 5834 5833 5832 5831 5830 5829
5840 5842 5843 5844 5846 5848 5848 5848 5846 5845 5845 5846 5845 5844 5843 5842 5842 5843 5842 5841 5841 5841 5841 5840 5840 5840 5841 5841 5840 5840 5840 5840 5840 5839 5838 5837 5836 5835 5834 5833 5832 5831 5830 5829 5828 5827 5825
5834 5834 5834 5835 5836 5839 5841 5842 5843 5842 5841 5841 5841 5841 5839 5839 5839 5839 5839 5838 5837 5837 5837 5837 5837 5838 5837 5838 5837 5836 5836 5836 5835 5835 5835 5833 5832 5832 5831 5830 5830 5828 5827 5825 5824 5823 5820
5828 5827 5826 5827 5827 5827 5830 5833 5835 5836 5836 5835 5835 5835 5835 5835 5834 5834 5835 5834 5834 5834 5833 5833 5834 5833 5832 5833 5833 5832 5832 5831 5831 5831 5830 5830 5829 5828 5827 5826 5825 5825 5823 5822 5820 5818 5816
5818 5818 5818 5817 5817 5819 5820 5822 5824 5826 5828 5830 5829 5829 5829 5829 5829 5828 5828 5828 5828 5829 5828 5827 5827 5827 5827 5827 5828 5828 5828 5827 5827 5826 5825 5826 5825 5823 5822 5821 5821 5819 5818 5816 5815 5813 5811
5810 5807 5807 5807 5808 5808 5808 5810 5813 5814 5818 5820 5821 5821 5821 5822 5822 5822 5822 5822 5822 5821 5821 5822 5822 5822 5822 5823 5822 5822 5822 5822 5821 5820 5820 5820 5820 5818 5817 5816 5815 5814 5812 5811 5810 5807 5805
5798 5798 5797 5796 5797 5798 5797 5799 5800 5802 5804 5808 5811 5812 5813 5814 5815 5814 5814 5814 5814 5813 5813 5816 5815 5817 5817 5816 5817 5816 5816 5816 5816 5815 5813 5814 5814 5813 5812 5811 5810 5808 5807 5805 5803 5801 5799
5786 5784 5783 5783 5783 5784 5784 5786 5788 5789 5792 5795 5798 5801 5803 5804 5805 5806 5806 5806 5805 5805 5803 5808 5809 5809 5810 5811 5811 5810 5810 5809 5809 5809 5809 5808 5807 5807 5806 5805 5803 5803 5800 5799 5797 5794 5793
5773 5771 5770 5769 5770 5769 5770 5772 5775 5777 5780 5782 5785 5788 5790 5793 5794 5795 5796 5796 5797 5797 5795 5800 5801 5802 5802 5803 5803 5803 5803 5803 5803 5802 5802 5802 5801 5801 5800 5799 5797 5795 5793 5791 5790 5788 5787
5759 5757 5755 5754 5753 5753 5755 5757 5759 5761 5766 5769 5771 5774 5778 5779 5782 5783 5784 5785 5785 5782 5792 5793 5794 5794 5794 5795 5795 5795 5795 5796 5796 5796 5796 5795 5794 5794 5793 5792 5790 5788 5786 5783 5782 5781 5780
5739 5738 5737 5738 5736 5737 5738 5740 5742 5745 5749 5753 5756 5760 5763 5764 5767 5770 5771 5772 5769 5777 5782 5783 5785 5785 5786 5786 5787 5787 5788 5788 5788 5788 5787 5787 5787 5786 5786 5785 5783 5781 5779 5776 5772 5772 5772
5712 5713 5715 5716 5719 5719 5720 5722 5725 5728 5731 5736 5739 5742 5748 5749 5751 5753 5756 5755 5760 5769 5771 5773 5774 5774 5776 5778 5778 5778 5779 5780 5780 5780 5780 5778 5777 5778 5777 5776 5775 5774 5772 5769 5764 5762 5761
5689 5688 5687 5690 5693 5698 5701 5704 5706 5710 5713 5717 5720 5724 5727 5733 5736 5737 5737 5742 5748 5757 5759 5762 5762 5763 5767 5769 5769 5769 5769 5773 5772 5772 5771 5770 5768 5769 5769 5768 5766 5764 5764 5761 5758 5751 5751
5647 5653 5659 5663 5666 5672 5678 5684 5688 5691 5695 5696 5701 5703 5710 5713 5715 5717 5720 5727 5737 5743 5746 5748 5750 5751 5754 5758 5758 5759 5759 5764 5763 5763 5763 5762 5759 5762 5759 5760 5758 5756 5756 5754 5750 5747 5741
5606 5607 5612 5621 5633 5644 5651 5660 5667 5673 5675 5674 5678 5682 5689 5695 5696 5700 5709 5716 5724 5728 5731 5734 5735 5738 5741 5746 5746 5747 5750 5752 5754 5753 5754 5752 5749 5751 5751 5750 5749 5748 5747 5745 5741 5739 5734
5569 5568 5572 5579 5593 5607 5621 5632 5642 5650 5653 5652 5653 5663 5665 5670 5675 5686 5694 5701 5706 5713 5717 5717 5720 5725 5729 5732 5732 5736 5738 5742 5742 5742 5741 5744 5739 5740 5740 5740 5740 5738 5737 5735 5732 5729 5728
5557 5553 5551 5554 5559 5569 5585 5601 5615 5625 5631 5631 5633 5636 5646 5648 5659 5670 5675 5680 5688 5695 5699 5702 5706 5709 5713 5717 5719 5721 5725 5728 5728 5730 5731 5729 5730 5731 5730 5728 5729 5729 5726 5724 5721 5720 5717
5549 5546 5545 5543 5542 5547 5554 5569 5583 5597 5607 5610 5614 5615 5623 5630 5639 5650 5657 5664 5671 5675 5682 5688 5689 5695 5701 5703 5705 5706 5709 5713 5716 5718 5718 5716 5718 5720 5719 5716 5716 5717 5717 5715 5712 5711 5704
5541 5537 5534 5534 5533 5533 5535 5542 5556 5571 5579 5583 5593 5600 5603 5612 5622 5627 5635 5645 5650 5658 5664 5671 5675 5682 5683 5686 5691 5694 5695 5698 5702 5704 5705 5705 5705 5708 5708 5705 5702 5703 5707 5704 5702 5700 5693
5530 5526 5523 5522 5521 5522 5523 5526 5534 5546 5551 5558 5571 5580 5583 5593 5600 5605 5616 5629 5637 5642 5646 5652 5660 5660 5665 5673 5674 5677 5680 5684 5686 5690 5693 5693 5694 5696 5694 5695 5690 5689 5700 5692 5691 5689 5683
5513 5512 5511 5509 5508 5509 5510 5512 5517 5525 5528 5536 5550 5560 5564 5570 5576 5591 5601 5609 5618 5624 5630 5635 5639 5643 5653 5655 5658 5662 5665 5669 5673 5675 5680 5680 5684 5683 5680 5681 5674 5684 5684 5682 5680 5677 5671
5494 5493 5492 5493 5493 5493 5496 5499 5503 5507 5512 5519 5528 5537 5544 5550 5560 5573 5584 5590 5598 5604 5609 5615 5623 5630 5633 5637 5641 5644 5649 5653 5657 5664 5666 5669 5671 5670 5666 5665 5665 5670 5671 5670 5665 5665 5662
5477 5474 5473 5473 5474 5476 5479 5482 5487 5491 5496 5500 5510 5514 5522 5528 5544 5555 5563 5572 5580 5589 5596 5602 5609 5613 5619 5621 5625 5628 5634 5642 5646 5650 5655 5657 5659 5658 5655 5654 5649 5654 5661 5657 5652 5650 5648
5463 5459 5457 5457 5458 5458 5461 5464 5468 5474 5479 5484 5494 5497 5498 5504 5530 5536 5546 5557 5565 5573 5580 5587 5593 5597 5603 5609 5612 5617 5622 5628 5630 5635 5643 5645 5644 5644 5644 5640 5637 5646 5646 5641 5640 5638 5634
5449 5446 5443 5442 5442 5443 5444 5446 5447 5451 5458 5465 5475 5480 5480 5486 5506 5516 5529 5539 5547 5553 5563 5574 5578 5583 5591 5594 5599 5605 5608 5613 5618 5622 5627 5632 5632 5632 5632 5628 5627 5633 5631 5630 5625 5622 5620
5436 5433 5431 5430 5429 5428 5428 5427 5426 5429 5438 5448 5455 5464 5468 5467 5495 5497 5509 5522 5532 5542 5548 5552 5563 5572 5578 5581 5586 5591 5595 5603 5606 5608 5613 5616 5622 5620 5619 5619 5621 5619 5618 5615 5612 5611 5608